User: anonymous   Login
Location: Deer Lake
(49.1830°N, 57.4330°W)
Time: 07:13:45
(UTC-02:-30)
Language:

NOSS 3-1 (C) - Orbit

View from above orbital plane
View from above orbital plane
View from above satellite
View from above satellite

Ground track
Ground track

The orbit data is extracted from the following two-line orbital elements,

1 26907U 01040C   15078.77824927 0.00000050  00000-0  69389-4 0    03
2 26907  63.4213 324.0399 0297000 358.0616   1.9384 13.41227294    02
Epoch (UTC): 19 March 2015 18:40:40
Eccentricity: 0.0297000
inclination: 63.4213°
perigee height: 882 km
apogee height: 1327 km
right ascension of ascending node: 324.0399°
argument of perigee: 358.0616°
revolutions per day: 13.41227294
mean anomaly at epoch: 1.9384°
orbit number at epoch: 0

The dashed part of the orbit path shows where the satellite is in the earth's shadow,  

DLR